EW8324 Weather Reports


time (UTC)temp
F
wind
direction
speed
knots
gust
knots
rain 1hr
in
rain 24hr
in
rain mn
in
humidity
%
barometer
mb
20260506093222 77 233 0.0 0.9 0.00 0.00 0.00 84 1003.8
20260506092613 77 209 0.0 0.9 0.00 0.00 0.00 84 1003.8
20260506092115 77 224 0.0 0.9 0.00 0.00 0.00 84 1003.8
20260506091612 77 165 0.0 0.9 0.00 0.00 0.00 84 1003.8
20260506091113 77 212 0.0 0.0 0.00 0.00 0.00 84 1003.8
20260506090611 77 186 0.0 0.0 0.00 0.00 0.00 84 1003.9
20260506090126 77 231 0.0 0.0 0.00 0.00 0.00 84 1003.9
20260506085833 77 195 0.0 0.0 0.00 0.00 0.00 84 1003.9
20260506085720 77 195 0.0 0.0 0.00 0.00 0.00 84 1003.9
20260506085114 77 240 0.0 0.0 0.00 0.00 0.00 85 1003.9
20260506084612 77 252 0.0 0.0 0.00 0.00 0.00 85 1003.9
20260506084113 77 248 0.0 0.0 0.00 0.00 0.00 85 1003.8
20260506083611 77 248 0.0 0.0 0.00 0.00 0.00 85 1003.9
20260506083113 77 175 0.0 0.0 0.00 0.00 0.00 85 1004.0
20260506082611 77 212 0.0 0.0 0.00 0.00 0.00 85 1004.0
20260506082559 77 240 0.0 0.0 0.00 0.00 0.00 85 1004.1
20260506082221 77 240 0.0 0.0 0.00 0.00 0.00 85 1004.1
20260506081610 77 240 0.0 0.0 0.00 0.00 0.00 85 1004.1
20260506081344 77 241 0.0 0.0 0.00 0.00 0.00 85 1004.3
20260506081222 77 241 0.0 0.0 0.00 0.00 0.00 85 1004.3
20260506080611 77 248 0.0 0.0 0.00 0.00 0.00 85 1004.2
20260506080124 77 195 0.0 0.0 0.00 0.00 0.00 85 1004.3
20260506073109 77 237 0.0 0.0 0.00 0.00 0.00 85 1004.6
20260506072610 77 237 0.0 0.0 0.00 0.00 0.00 85 1004.7
20260506072110 77 183 0.0 0.0 0.00 0.00 0.00 85 1004.6
20260506071609 77 237 0.0 0.0 0.00 0.00 0.00 85 1004.7
20260506071111 77 190 0.0 0.0 0.00 0.00 0.00 85 1004.8
20260506070610 77 190 0.0 0.0 0.00 0.00 0.00 85 1004.8
20260506070110 77 258 0.0 3.5 0.00 0.00 0.00 85 1004.8
20260506062107 77 264 0.0 0.0 0.00 0.00 0.00 85 1004.8
20260506061609 77 237 0.0 0.0 0.00 0.00 0.00 85 1004.9
20260506061338 77 234 0.0 0.0 0.00 0.00 0.00 85 1004.9
20260506061217 77 234 0.0 0.0 0.00 0.00 0.00 85 1004.9
20260506060824 77 158 0.0 0.0 0.00 0.00 0.00 85 1005.0
20260506060714 77 158 0.0 0.0 0.00 0.00 0.00 85 1005.0
20260506060121 77 255 0.0 0.0 0.00 0.00 0.00 85 1004.9
20260506051107 78 190 0.0 0.0 0.00 0.00 0.00 85 1005.1
20260506050607 78 210 0.0 0.0 0.00 0.00 0.00 85 1005.2
20260506050331 78 282 0.0 0.0 0.00 0.00 0.00 85 1005.1
20260506050220 78 282 0.0 0.0 0.00 0.00 0.00 85 1005.1
20260506044838 78 158 0.9 3.5 0.00 0.00 0.00 85 1004.7
20260506044711 78 158 0.9 3.5 0.00 0.00 0.00 85 1004.7
20260506044326 78 244 0.0 0.0 0.00 0.00 0.00 85 1004.9
20260506044216 78 244 0.0 0.0 0.00 0.00 0.00 85 1004.9
20260506043607 78 238 0.0 0.0 0.00 0.00 0.00 85 1005.1
20260506043323 78 183 0.0 0.0 0.00 0.00 0.00 85 1005.0
20260506043216 78 183 0.0 0.0 0.00 0.00 0.00 85 1005.0
20260506042607 78 243 0.0 5.2 0.00 0.00 0.00 85 1005.1
20260506042107 78 157 0.9 5.2 0.00 0.00 0.00 85 1005.0
20260506041606 78 238 0.0 0.0 0.00 0.00 0.00 85 1004.9
20260506041107 78 210 0.0 0.0 0.00 0.00 0.00 85 1004.8
20260506040825 78 169 0.0 0.0 0.00 0.00 0.00 85 1004.9
20260506040713 78 169 0.0 0.0 0.00 0.00 0.00 85 1004.9
20260506040110 78 223 0.0 0.0 0.00 0.00 0.00 85 1004.8
20260506035606 78 158 0.0 0.0 0.00 0.00 0.00 85 1004.7
20260506035107 78 209 0.0 0.0 0.00 0.00 0.00 85 1004.6
20260506034605 78 159 0.0 5.2 0.00 0.00 0.00 84 1004.7
20260506034105 79 274 0.0 5.2 0.00 0.00 0.00 84 1004.6
20260506033604 79 210 0.0 0.9 0.00 0.00 0.00 84 1004.6
20260506033105 79 221 0.0 0.9 0.00 0.00 0.00 84 1004.6
20260506032605 79 157 0.0 0.0 0.00 0.00 0.00 84 1004.5
20260506032106 79 165 0.0 6.1 0.00 0.00 0.00 84 1004.4
20260506031604 79 168 0.9 6.1 0.00 0.00 0.00 84 1004.4
20260506031106 79 182 0.0 0.0 0.00 0.00 0.00 84 1004.4
20260506030605 79 161 0.0 0.0 0.00 0.00 0.00 83 1004.3
20260506030347 79 159 0.0 2.6 0.00 0.00 0.00 83 1004.3
20260506030229 79 159 0.0 2.6 0.00 0.00 0.00 83 1004.3
20260506025604 79 159 0.0 2.6 0.00 0.00 0.00 83 1004.2
20260506025104 79 248 0.0 4.3 0.00 0.00 0.00 83 1004.1
20260506024604 79 221 0.0 4.3 0.00 0.00 0.00 83 1004.0
20260506024106 79 231 0.0 0.9 0.00 0.00 0.00 82 1003.9
20260506023824 79 252 0.0 0.9 0.00 0.00 0.00 82 1003.7
20260506023710 79 252 0.0 0.9 0.00 0.00 0.00 82 1003.7
20260506023104 79 296 0.0 0.0 0.00 0.00 0.00 82 1003.6
20260506022603 79 233 0.0 0.0 0.00 0.00 0.00 82 1003.6
20260506022106 79 228 0.0 0.0 0.00 0.00 0.00 82 1003.6
20260506021821 80 217 0.0 0.0 0.00 0.00 0.00 81 1003.6
20260506021708 80 217 0.0 0.0 0.00 0.00 0.00 81 1003.6
20260506021549 80 268 0.0 0.0 0.00 0.00 0.00 81 1003.5
20260506021213 80 268 0.0 0.0 0.00 0.00 0.00 81 1003.5
20260506020603 80 228 0.0 0.0 0.00 0.00 0.00 81 1003.5
20260506020111 80 231 0.0 0.0 0.00 0.00 0.00 81 1003.4
20260506015604 80 254 0.0 0.0 0.00 0.00 0.00 80 1003.4
20260506015105 80 130 0.0 0.0 0.00 0.00 0.00 80 1003.4
20260506014602 80 245 0.0 0.9 0.00 0.00 0.00 79 1003.3
20260506014104 80 176 0.0 0.9 0.00 0.00 0.00 79 1003.2
20260506013601 80 209 0.0 0.9 0.00 0.00 0.00 79 1003.1
20260506013103 80 272 0.0 0.0 0.00 0.00 0.00 79 1003.1
20260506013047 80 183 0.0 0.0 0.00 0.00 0.00 79 1003.1
20260506012709 80 183 0.0 0.0 0.00 0.00 0.00 79 1003.1
20260506012105 80 183 0.0 0.9 0.00 0.00 0.00 78 1002.9
20260506011602 80 127 0.0 0.9 0.00 0.00 0.00 78 1002.8
20260506011104 80 200 0.0 0.0 0.00 0.00 0.00 78 1002.6
20260506010600 81 257 0.0 0.0 0.00 0.00 0.00 78 1002.6
20260506010110 81 235 0.0 0.0 0.00 0.00 0.00 77 1002.6
20260506005601 81 237 0.0 0.0 0.00 0.00 0.00 77 1002.6
20260506005103 81 230 0.0 0.0 0.00 0.00 0.00 77 1002.6
20260506004600 81 250 0.0 0.0 0.00 0.00 0.00 77 1002.5
20260506004102 81 189 0.0 0.0 0.00 0.00 0.00 76 1002.5
20260506003600 82 186 0.0 0.0 0.00 0.00 0.00 75 1002.5
20260506003105 82 142 0.0 0.0 0.00 0.00 0.00 75 1002.6
20260506002601 83 204 0.0 0.0 0.00 0.00 0.00 73 1002.5
20260506002321 83 157 0.0 0.0 0.00 0.00 0.00 73 1002.4
20260506002210 83 157 0.0 0.0 0.00 0.00 0.00 73 1002.4
20260506001559 85 185 0.0 5.2 0.00 0.00 0.00 71 1002.4
20260506001102 85 192 0.9 5.2 0.00 0.00 0.00 72 1002.3
20260506000559 84 193 0.0 0.0 0.00 0.00 0.00 73 1002.3
20260506000323 83 159 0.0 0.0 0.00 0.00 0.00 76 1002.5
20260506000211 83 159 0.0 0.0 0.00 0.00 0.00 76 1002.5
20260505235600 82 179 0.0 0.9 0.00 0.00 0.00 77 1002.4
20260505235102 82 241 0.0 4.3 0.00 0.00 0.00 77 1002.3
20260505234559 82 154 0.0 4.3 0.00 0.00 0.00 77 1002.3
20260505234103 82 183 0.0 0.0 0.00 0.00 0.00 77 1002.2
20260505233818 82 165 0.0 0.0 0.00 0.00 0.00 77 1002.2
20260505233706 82 165 0.0 0.0 0.00 0.00 0.00 77 1002.2
20260505233326 82 255 0.0 2.6 0.00 0.00 0.00 77 1002.3
20260505233211 82 255 0.0 2.6 0.00 0.00 0.00 77 1002.3
20260505232559 82 279 0.9 2.6 0.00 0.00 0.00 77 1002.3
20260505232102 82 230 0.0 1.7 0.00 0.00 0.00 76 1002.2
20260505231559 83 179 0.0 1.7 0.00 0.00 0.00 76 1002.3
20260505231100 83 233 0.0 0.0 0.00 0.00 0.00 76 1002.2
20260505230558 83 231 0.0 0.0 0.00 0.00 0.00 76 1002.4
20260505230112 83 166 0.0 0.0 0.00 0.00 0.00 75 1002.4
20260505225557 83 178 0.0 0.9 0.00 0.00 0.00 75 1002.4
20260505225100 83 228 0.0 0.9 0.00 0.00 0.00 74 1002.3
20260505224553 84 221 0.0 0.9 0.00 0.00 0.00 73 1002.2
20260505224055 84 257 0.0 0.0 0.00 0.00 0.00 72 1002.1
20260505223557 84 221 0.0 3.5 0.00 0.00 0.00 73 1002.3
20260505223059 84 186 0.0 3.5 0.00 0.00 0.00 73 1002.4
20260505222558 84 231 0.0 0.0 0.00 0.00 0.00 73 1002.3
20260505222058 84 292 0.0 0.0 0.00 0.00 0.00 73 1002.3
20260505221601 84 247 0.0 0.0 0.00 0.00 0.00 74 1002.3
20260505221059 84 214 0.0 0.0 0.00 0.00 0.00 74 1002.3
20260505220558 84 238 0.0 0.0 0.00 0.00 0.00 74 1002.3
20260505220322 84 233 0.0 0.0 0.00 0.00 0.00 72 1002.5
20260505220214 84 233 0.0 0.0 0.00 0.00 0.00 72 1002.5
20260505220039 0 0.0 0.0 0.00 0.00 0.00 1002.5
20260505215703 0 0.0 0.0 0.00 0.00 0.00 1002.5
20260505215056 0 0.0 0.0 0.00 0.00 0.00 1002.6
20260505214556 85 164 0.0 0.0 0.00 0.00 0.00 72 1002.6
20260505214055 0 0.0 0.0 0.00 0.00 0.00 1002.8
20260505213554 85 245 0.0 0.0 0.00 0.00 0.00 72 1002.7
20260505213054 85 238 0.0 0.0 0.00 0.00 0.00 73 1002.8
20260505212552 0 0.0 0.0 0.00 0.00 0.00 1002.8
20260505212106 85 193 0.0 0.0 0.00 0.00 0.00 73 1002.8
20260505212034 85 172 0.0 0.0 0.00 0.00 0.00 73 1003.0
20260505211700 85 172 0.0 0.0 0.00 0.00 0.00 73 1003.0
20260505211050 0 0.0 0.0 0.00 0.00 0.00 1003.0
20260505210551 0 0.0 0.0 0.00 0.00 0.00 1003.0
20260505210104 85 247 0.0 0.0 0.00 0.00 0.00 73 1003.1
20260505205549 85 247 0.0 0.0 0.00 0.00 0.00 73 1003.0
20260505205315 85 245 0.0 0.0 0.00 0.00 0.00 72 1003.1
20260505205157 85 245 0.0 0.0 0.00 0.00 0.00 72 1003.1
20260505204547 85 244 0.0 0.0 0.00 0.00 0.00 72 1003.2
20260505204050 85 228 0.0 0.0 0.00 0.00 0.00 72 1003.3
20260505203807 85 204 0.0 0.0 0.00 0.00 0.00 73 1003.4
20260505203655 85 204 0.0 0.0 0.00 0.00 0.00 73 1003.4
20260505203049 85 261 0.0 0.0 0.00 0.00 0.00 72 1003.3
20260505202547 85 269 0.0 2.6 0.00 0.00 0.00 73 1003.4
20260505202048 84 223 0.0 2.6 0.00 0.00 0.00 74 1003.5
20260505201806 84 207 0.0 1.7 0.00 0.00 0.00 75 1003.5
20260505201653 84 207 0.0 1.7 0.00 0.00 0.00 75 1003.5
20260505201048 84 200 0.0 2.6 0.00 0.00 0.00 75 1003.6
20260505200545 84 189 0.0 6.1 0.00 0.00 0.00 74 1003.8
20260505195546 84 214 0.0 0.0 0.00 0.00 0.00 75 1003.9
20260505195316 84 238 0.0 0.0 0.00 0.00 0.00 74 1004.0
20260505195155 84 238 0.0 0.0 0.00 0.00 0.00 74 1004.0
20260505194546 84 255 0.0 0.0 0.00 0.00 0.00 75 1004.1
20260505194048 83 272 0.0 0.0 0.00 0.00 0.00 75 1004.1
20260505193546 83 266 0.0 0.0 0.00 0.00 0.00 76 1004.1
20260505193048 83 235 0.0 0.0 0.00 0.00 0.00 77 1004.1
20260505192544 83 188 0.0 0.0 0.00 0.00 0.00 76 1004.2
20260505192311 83 250 0.0 0.0 0.00 0.00 0.00 79 1004.4
20260505192154 83 250 0.0 0.0 0.00 0.00 0.00 79 1004.4
20260505191546 82 259 0.0 0.0 0.00 0.00 0.00 78 1004.4
20260505191315 82 254 0.0 0.0 0.00 0.00 0.00 77 1004.5
20260505191155 82 254 0.0 0.0 0.00 0.00 0.00 77 1004.5
20260505190544 82 244 0.0 2.6 0.00 0.00 0.00 76 1004.4
20260505190100 82 226 0.0 2.6 0.00 0.00 0.00 76 1004.4
20260505185545 83 258 0.0 0.0 0.00 0.00 0.00 76 1004.6
20260505185048 83 252 0.0 0.0 0.00 0.00 0.00 76 1004.5
20260505184546 83 196 0.0 0.0 0.00 0.00 0.00 76 1004.5
20260505184047 83 162 0.0 0.0 0.00 0.00 0.00 76 1004.6
20260505183543 82 274 0.0 0.0 0.00 0.01 0.00 76 1004.5
20260505183047 82 228 0.0 2.6 0.00 0.01 0.00 77 1004.6
20260505182543 82 154 0.0 2.6 0.00 0.01 0.00 76 1004.6
20260505182046 82 230 0.9 1.7 0.00 0.01 0.00 78 1004.7
20260505181545 82 173 0.0 1.7 0.00 0.01 0.00 78 1004.7
20260505181046 82 221 0.0 0.0 0.00 0.01 0.00 78 1004.7
20260505180544 81 276 0.0 0.0 0.00 0.01 0.00 79 1004.6
20260505180046 81 276 0.0 0.9 0.00 0.01 0.00 79 1004.7
20260505175543 81 272 0.0 0.9 0.00 0.01 0.00 79 1004.9
20260505175046 81 259 0.0 0.0 0.00 0.01 0.00 79 1004.8
20260505174544 81 259 0.0 0.0 0.00 0.01 0.00 80 1004.9
20260505174044 81 269 0.0 0.0 0.00 0.01 0.00 80 1005.0
20260505173819 80 240 0.0 0.0 0.00 0.01 0.00 80 1005.0
20260505173702 80 240 0.0 0.0 0.00 0.01 0.00 80 1005.0
20260505173045 80 240 0.0 0.0 0.00 0.01 0.00 81 1005.1
20260505172813 80 212 0.0 0.0 0.00 0.01 0.00 81 1005.2
20260505172651 80 212 0.0 0.0 0.00 0.01 0.00 81 1005.2
20260505172045 80 251 0.0 0.0 0.00 0.01 0.00 82 1005.1
20260505171542 80 274 0.0 0.0 0.00 0.01 0.00 81 1005.1
20260505171043 80 185 0.0 0.0 0.00 0.01 0.00 81 1005.2
20260505170542 79 234 0.0 0.0 0.00 0.01 0.00 81 1005.2
20260505170043 79 286 0.0 0.0 0.00 0.01 0.00 82 1005.2
20260505165542 79 196 0.0 0.0 0.00 0.01 0.00 82 1005.3
20260505165310 79 240 0.0 0.0 0.00 0.01 0.00 83 1005.3
20260505165151 79 240 0.0 0.0 0.00 0.01 0.00 83 1005.3
20260505164543 79 240 0.0 0.0 0.00 0.01 0.00 83 1005.3
20260505164046 78 240 0.0 0.0 0.00 0.01 0.00 83 1005.3
20260505163543 78 240 0.0 0.0 0.00 0.01 0.00 83 1005.4
20260505163044 78 240 0.0 0.0 0.00 0.01 0.00 83 1005.3
20260505162541 78 245 0.0 0.0 0.00 0.01 0.00 83 1005.4
20260505162046 78 245 0.0 0.0 0.00 0.01 0.00 83 1005.3
20260505161806 0 0.0 3.5 0.00 0.01 0.00 1005.2
20260505161649 0 0.0 3.5 0.00 0.01 0.00 1005.2
20260505161044 78 240 0.0 3.5 0.00 0.01 0.00 83 1005.2
20260505160539 78 200 0.0 0.0 0.00 0.01 0.00 83 1005.2
20260505153040 78 196 0.0 0.0 0.00 0.01 0.00 83 1005.1
20260505152538 78 159 0.0 0.0 0.00 0.01 0.00 83 1005.0
20260505152040 78 179 0.0 0.0 0.00 0.01 0.00 83 1005.1
20260505151540 78 182 0.0 0.0 0.00 0.01 0.00 84 1004.9
20260505151054 77 207 0.0 0.0 0.00 0.01 0.00 83 1004.9
20260505150539 77 197 0.0 0.0 0.00 0.01 0.00 83 1005.0
20260505140536 76 178 0.0 0.9 0.00 0.02 0.00 84 1004.6
20260505125037 74 31 0.0 0.0 0.00 0.02 0.00 83 1004.2
20260505124536 73 32 0.0 0.0 0.00 0.02 0.00 83 1004.1
20260505124036 73 213 0.0 0.0 0.00 0.02 0.00 82 1004.4
20260505123535 73 213 0.0 0.0 0.00 0.02 0.00 82 1004.6
20260505123040 73 213 0.0 0.0 0.00 0.02 0.00 82 1004.5
20260505122535 73 213 0.0 0.0 0.00 0.02 0.00 82 1004.5
20260505122039 73 257 0.0 0.0 0.00 0.02 0.00 82 1004.6
20260505121534 73 257 0.0 0.0 0.00 0.02 0.00 82 1004.4
20260505121258 73 257 0.0 0.0 0.00 0.02 0.00 83 1004.5
20260505121145 73 257 0.0 0.0 0.00 0.02 0.00 83 1004.5
20260505120534 72 238 0.0 0.0 0.00 0.02 0.00 83 1004.1
20260505120038 72 238 0.0 0.0 0.00 0.02 0.00 83 1004.1
20260505115754 72 238 0.0 0.0 0.00 0.02 0.00 83 1004.0
20260505115641 72 238 0.0 0.0 0.00 0.02 0.00 83 1004.0
20260505115036 72 252 0.0 0.0 0.00 0.02 0.00 83 1003.9
20260505114757 72 254 0.0 0.0 0.00 0.02 0.00 83 1004.0
20260505114641 72 254 0.0 0.0 0.00 0.02 0.00 83 1004.0
20260505114035 72 261 0.0 0.0 0.00 0.02 0.00 83 1004.4
20260505113532 72 261 0.0 0.0 0.00 0.02 0.00 83 1004.5
20260505113037 72 245 0.0 0.0 0.00 0.02 0.00 83 1004.3
20260505112534 72 245 0.0 0.9 0.00 0.02 0.00 83 1004.3
20260505112036 72 233 0.0 0.9 0.00 0.02 0.00 83 1004.2
20260505111534 72 235 0.0 0.0 0.00 0.03 0.00 83 1004.1
20260505111035 72 235 0.0 0.0 0.00 0.03 0.00 83 1004.1
20260505110545 72 212 0.0 0.0 0.00 0.03 0.00 83 1004.1
20260505102037 72 223 0.0 0.0 0.00 0.03 0.00 84 1004.1
20260505101527 72 223 0.0 0.0 0.00 0.03 0.00 84 1004.2
20260505101035 72 224 0.0 0.0 0.00 0.03 0.00 84 1004.2
20260505100532 72 206 0.0 0.0 0.00 0.03 0.00 84 1004.3
20260505100043 72 206 0.0 0.0 0.00 0.03 0.00 84 1004.3
20260505095531 72 206 0.0 0.0 0.00 0.03 0.00 84 1004.3
20260505095037 71 206 0.0 0.0 0.00 0.03 0.00 84 1004.3
20260505094531 71 206 0.0 0.0 0.00 0.03 0.00 84 1004.2
20260505094030 71 195 0.0 0.0 0.00 0.03 0.00 84 1004.3
20260505093525 71 195 0.0 0.0 0.00 0.03 0.00 84 1004.2